Hourly Data Report for February 10, 2015

All times are specified in Local Standard Time (LST). Add 1 hour to adjust for Daylight Saving Time where and when it is observed.

GERALDTON A
ONTARIO

49°46'58.090" N
86°55'50.050" W
348.40 m
6042716
71834
YGQ

Download Data

Hourly Data (February 2015)
Hourly Data Report for February 10, 2015
Temp Definition
°C
Dew Point Temp Definition
°C
Rel Hum Definition
%
Wind Dir Definition
10's deg

Wind Spd Definition
km/h
Visibility Definition
km
Stn Press Definition
kPa
Hmdx Definition


Wind Chill Definition


Weather Definition


TIME
00:00 -22.5 -24.5 84 30 6 24.1 98.33   -28 Clear
01:00 -23.5 -25.8 81 36 6 24.1 98.35   -29 Clear
02:00 -22.1 -24.2 83 1 9 24.1 98.36   -29 Clear
03:00 -20.5 -22.7 82 36 4 24.1 98.46   -24 Mainly Clear
04:00 -18.1 -20.8 79 5 13 24.1 98.51   -26 Mostly Cloudy
05:00 -19.5 -22.4 78 5 11 24.1 98.53   -27 Mainly Clear
06:00 -21.4 -24.1 79 6 9 24.1 98.55   -28 Mainly Clear
07:00 -22.6 -25.2 79 6 7 24.1 98.57   -29 Mainly Clear
08:00 -24.1 -26.7 79 9 9 24.1 98.62   -32 Mainly Clear
09:00 -23.3 -25.9 79 8 13 24.1 98.63   -32 Cloudy
10:00 -22.2 -25.3 76 11 13 24.1 98.63   -31 Cloudy
11:00 -21.1 -25.1 70 9 17 24.1 98.61   -31 Cloudy
12:00 -19.3 -24.1 66 9 17 24.1 98.51   -29 Cloudy
13:00 -17.4 -23.8 57 12 19 24.1 98.42   -27 Cloudy
14:00 -16.8 -23.5 56 9 19 24.1 98.36   -26 Cloudy
15:00 -16.4 -23.8 53 12 13 24.1 98.25   -24 Cloudy
16:00 -16.3 -22.5 59 11 17 9.7 98.17   -25 Snow
17:00 -16.5 -21.0 68 10 13 3.2 98.09   -24 Snow
18:00 -16.9 -20.6 73 9 17 9.7 97.98   -26 Snow
19:00 -17.2 -20.3 77 9 17 2.4 97.90   -26 Snow
20:00 -17.2 -19.8 80 9 19 1.6 97.81   -27 Snow
21:00 -17.1 -19.7 80 10 19 3.2 97.75   -27 Snow
22:00 -17.1 -19.5 82 9 13 3.2 97.65   -25 Snow
23:00 -17.0 -19.4 82 8 15 3.2 97.56   -25 Snow

Notes on Data Quality.

Legend

  • E = Estimated
  • M = Missing
  • NA = Not Available
  • ‡ = Partner data that is not subject to review by the National Climate Archives
Date modified: